�������l�o���
Date,Time,MP-1(��Sv/h),MP-2(��Sv/h),MP-3(��Sv/h),MP-4(��Sv/h),MP-5(��Sv/h),MP-6(��Sv/h),MP-7(��Sv/h),MP-8(��Sv/h),����,����(m/s),���J
2023/06/29,00:00,0.508,0.763,0.479,0.915,0.673,0.324,0.550,0.523,�k,4.3,�L
2023/06/29,00:10,0.512,0.765,0.480,0.917,0.669,0.325,0.552,0.523,�k,4.2,�L
2023/06/29,00:20,0.511,0.764,0.481,0.921,0.670,0.324,0.551,0.522,�k�k��,4.1,�L
2023/06/29,00:30,0.510,0.767,0.478,0.918,0.670,0.324,0.551,0.522,�k�k��,4.3,�L
2023/06/29,00:40,0.509,0.763,0.478,0.919,0.670,0.322,0.551,0.524,�k,4.3,�L
2023/06/29,00:50,0.509,0.765,0.476,0.919,0.669,0.321,0.551,0.521,�k,4.8,�L
2023/06/29,01:00,0.508,0.763,0.474,0.916,0.670,0.320,0.550,0.521,�k,5.3,�L
2023/06/29,01:10,0.507,0.761,0.475,0.918,0.666,0.318,0.551,0.523,�k�k��,4.7,�L
2023/06/29,01:20,0.506,0.763,0.473,0.918,0.666,0.317,0.551,0.522,�k�k��,4.5,�L
2023/06/29,01:30,0.506,0.760,0.473,0.917,0.667,0.317,0.550,0.521,�k�k��,4.6,�L
2023/06/29,01:40,0.504,0.760,0.472,0.916,0.667,0.317,0.550,0.522,�k�k��,4.2,�L
2023/06/29,01:50,0.503,0.758,0.472,0.916,0.666,0.317,0.551,0.522,�k�k��,3.3,�L
2023/06/29,02:00,0.503,0.760,0.471,0.915,0.665,0.316,0.551,0.520,�k,1.7,�L
2023/06/29,02:10,0.501,0.758,0.471,0.915,0.666,0.316,0.550,0.520,�k�k��,0.9,�L
2023/06/29,02:20,0.504,0.761,0.470,0.917,0.664,0.317,0.550,0.520,���k��,1.2,�L
2023/06/29,02:30,0.501,0.757,0.471,0.915,0.666,0.316,0.550,0.521,�k��,1.2,�L
2023/06/29,02:40,0.501,0.759,0.470,0.917,0.665,0.316,0.551,0.522,���k��,2.0,�L
2023/06/29,02:50,0.504,0.759,0.472,0.916,0.665,0.315,0.551,0.522,-,CALM,��
2023/06/29,03:00,0.502,0.759,0.471,0.915,0.663,0.315,0.550,0.522,�쓌,0.9,��
2023/06/29,03:10,0.503,0.759,0.469,0.915,0.664,0.315,0.551,0.522,�쓌,0.8,��
2023/06/29,03:20,0.504,0.757,0.472,0.916,0.664,0.316,0.550,0.523,��쓌,1.5,��
2023/06/29,03:30,0.501,0.760,0.471,0.917,0.663,0.315,0.550,0.523,��쓌,1.5,��
2023/06/29,03:40,0.502,0.759,0.471,0.917,0.664,0.316,0.550,0.524,��쓌,1.7,��
2023/06/29,03:50,0.502,0.761,0.471,0.918,0.664,0.316,0.550,0.523,��,2.2,��
2023/06/29,04:00,0.502,0.760,0.471,0.917,0.665,0.314,0.551,0.524,��,2.6,��
2023/06/29,04:10,0.503,0.764,0.471,0.917,0.667,0.316,0.551,0.523,��쐼,2.5,��
2023/06/29,04:20,0.503,0.761,0.470,0.918,0.668,0.316,0.553,0.524,��쐼,2.3,��
2023/06/29,04:30,0.502,0.764,0.473,0.917,0.668,0.315,0.552,0.523,�쐼,3.4,��
2023/06/29,04:40,0.502,0.765,0.473,0.919,0.666,0.316,0.552,0.525,�쐼,3.2,��
2023/06/29,04:50,0.503,0.761,0.472,0.916,0.668,0.314,0.552,0.523,�쐼,2.0,��
2023/06/29,05:00,0.505,0.764,0.472,0.917,0.668,0.315,0.553,0.525,��,1.2,��
2023/06/29,05:10,0.505,0.764,0.472,0.918,0.667,0.317,0.554,0.524,��,1.7,��
2023/06/29,05:20,0.504,0.764,0.472,0.918,0.669,0.316,0.553,0.523,��,1.1,��
2023/06/29,05:30,0.505,0.762,0.471,0.918,0.667,0.316,0.553,0.524,�쓌,0.6,��
2023/06/29,05:40,0.503,0.761,0.472,0.920,0.671,0.316,0.552,0.524,��,1.4,��
2023/06/29,05:50,0.502,0.762,0.472,0.919,0.670,0.315,0.553,0.524,��쓌,1.2,��
2023/06/29,06:00,0.504,0.761,0.471,0.919,0.669,0.315,0.554,0.523,�쓌,1.7,��
2023/06/29,06:10,0.502,0.762,0.471,0.921,0.668,0.316,0.553,0.524,�쓌,2.9,��
2023/06/29,06:20,0.504,0.764,0.471,0.921,0.670,0.315,0.554,0.525,��쓌,3.9,��
2023/06/29,06:30,0.504,0.763,0.471,0.920,0.669,0.317,0.553,0.526,��,2.6,��
2023/06/29,06:40,0.504,0.763,0.473,0.920,0.669,0.316,0.555,0.524,��쓌,1.7,��
2023/06/29,06:50,0.504,0.760,0.473,0.919,0.669,0.316,0.556,0.523,��쓌,0.8,��
2023/06/29,07:00,0.505,0.763,0.473,0.920,0.667,0.316,0.554,0.524,���쐼,1.4,��
2023/06/29,07:10,0.504,0.763,0.473,0.919,0.670,0.317,0.556,0.524,��,2.3,��
2023/06/29,07:20,0.505,0.765,0.473,0.919,0.670,0.316,0.555,0.525,��,2.0,��
2023/06/29,07:30,0.506,0.764,0.474,0.920,0.670,0.315,0.553,0.525,��,2.0,��
2023/06/29,07:40,0.507,0.766,0.472,0.923,0.671,0.318,0.554,0.523,���k��,3.1,��
2023/06/29,07:50,0.507,0.767,0.472,0.921,0.671,0.316,0.554,0.522,���k��,4.0,��
2023/06/29,08:00,0.507,0.765,0.473,0.923,0.672,0.315,0.554,0.521,���k��,5.5,��
2023/06/29,08:10,0.506,0.768,0.472,0.923,0.670,0.316,0.555,0.523,���k��,5.1,��
2023/06/29,08:20,0.507,0.767,0.474,0.921,0.671,0.316,0.553,0.525,�쓌,1.5,��
2023/06/29,08:30,0.506,0.767,0.474,0.923,0.669,0.317,0.553,0.523,��쓌,2.6,��
2023/06/29,08:40,0.507,0.768,0.476,0.925,0.672,0.317,0.555,0.523,���쐼,3.0,��
2023/06/29,08:50,0.508,0.768,0.474,0.924,0.672,0.316,0.555,0.525,���k��,4.2,��
2023/06/29,09:00,0.509,0.769,0.475,0.923,0.672,0.317,0.554,0.523,��,3.3,��
2023/06/29,09:10,0.508,0.770,0.476,0.926,0.673,0.318,0.557,0.523,��,2.9,��
2023/06/29,09:20,0.510,0.769,0.477,0.926,0.672,0.319,0.558,0.524,��,2.9,��
2023/06/29,09:30,0.510,0.770,0.476,0.926,0.673,0.318,0.558,0.525,��,1.7,��
2023/06/29,09:40,0.510,0.771,0.477,0.925,0.674,0.317,0.557,0.524,���k��,2.2,��
2023/06/29,09:50,0.511,0.770,0.478,0.925,0.675,0.319,0.557,0.524,��,1.4,��
2023/06/29,10:00,0.511,0.771,0.478,0.925,0.676,0.317,0.558,0.525,��쓌,1.5,��
2023/06/29,10:10,0.512,0.773,0.479,0.926,0.676,0.319,0.558,0.525,��쓌,2.0,��
2023/06/29,10:20,0.511,0.774,0.478,0.924,0.675,0.317,0.557,0.526,��,0.9,��
2023/06/29,10:30,0.511,0.773,0.478,0.928,0.678,0.319,0.557,0.526,��쓌,2.3,��
2023/06/29,10:40,0.512,0.774,0.478,0.927,0.677,0.318,0.557,0.526,��,4.1,��
2023/06/29,10:50,0.512,0.776,0.479,0.928,0.679,0.319,0.558,0.527,��쓌,3.8,��
2023/06/29,11:00,0.511,0.775,0.479,0.929,0.677,0.318,0.559,0.524,��쓌,3.0,��
2023/06/29,11:10,0.513,0.774,0.478,0.927,0.678,0.320,0.558,0.526,�쓌,2.6,��
2023/06/29,11:20,0.513,0.775,0.479,0.926,0.680,0.319,0.559,0.526,��쓌,3.0,��
2023/06/29,11:30,0.511,0.777,0.478,0.926,0.680,0.319,0.560,0.525,�쓌,5.3,��
2023/06/29,11:40,0.514,0.778,0.479,0.927,0.681,0.319,0.561,0.526,��쓌,6.4,��
2023/06/29,11:50,0.511,0.776,0.479,0.925,0.681,0.320,0.560,0.526,��쓌,6.2,��
2023/06/29,12:00,0.514,0.777,0.481,0.928,0.679,0.320,0.558,0.526,��쓌,6.9,��
2023/06/29,12:10,0.515,0.779,0.480,0.927,0.682,0.320,0.560,0.528,��쓌,6.7,��
2023/06/29,12:20,0.515,0.781,0.482,0.929,0.683,0.320,0.559,0.526,��쓌,6.9,��
2023/06/29,12:30,0.514,0.780,0.480,0.930,0.682,0.319,0.558,0.526,��쓌,8.3,��
2023/06/29,12:40,0.514,0.781,0.481,0.930,0.682,0.320,0.560,0.526,��쓌,9.7,��
2023/06/29,12:50,0.514,0.778,0.480,0.928,0.683,0.319,0.559,0.526,��쓌,10.2,��
2023/06/29,13:00,0.515,0.779,0.480,0.930,0.682,0.319,0.558,0.526,��쓌,10.8,��
2023/06/29,13:10,0.515,0.781,0.482,0.930,0.683,0.319,0.558,0.525,��쓌,12.2,��
2023/06/29,13:20,0.515,0.781,0.482,0.929,0.681,0.319,0.558,0.527,��쓌,12.2,��
2023/06/29,13:30,0.515,0.780,0.481,0.928,0.684,0.318,0.560,0.525,��쓌,10.3,��
2023/06/29,13:40,0.515,0.781,0.481,0.929,0.683,0.319,0.560,0.527,��쓌,7.9,��
2023/06/29,13:50,0.517,0.780,0.482,0.931,0.685,0.320,0.559,0.525,��쓌,9.2,��
2023/06/29,14:00,0.518,0.782,0.482,0.931,0.683,0.319,0.560,0.526,��쓌,11.9,��
2023/06/29,14:10,0.516,0.779,0.482,0.931,0.683,0.321,0.560,0.527,��,10.5,�L
2023/06/29,14:20,0.515,0.781,0.482,0.930,0.684,0.320,0.560,0.528,��,10.5,�L
2023/06/29,14:30,0.517,0.780,0.483,0.929,0.685,0.320,0.560,0.527,��,8.3,��
2023/06/29,14:40,0.515,0.782,0.482,0.932,0.685,0.319,0.558,0.525,��쓌,7.5,�L
2023/06/29,14:50,0.513,0.776,0.479,0.924,0.676,0.319,0.559,0.526,��쓌,3.9,�L
2023/06/29,15:00,0.510,0.775,0.479,0.915,0.666,0.318,0.555,0.521,�쓌,3.3,��
2023/06/29,15:10,0.510,0.774,0.478,0.917,0.667,0.318,0.556,0.522,���쓌,6.6,��
2023/06/29,15:20,0.510,0.775,0.477,0.917,0.670,0.318,0.555,0.523,�쓌,5.4,��
2023/06/29,15:30,0.512,0.775,0.477,0.919,0.672,0.320,0.555,0.521,�쓌,5.6,��
2023/06/29,15:40,0.511,0.777,0.477,0.919,0.671,0.319,0.557,0.524,��쓌,3.8,��
2023/06/29,15:50,0.514,0.778,0.478,0.918,0.671,0.319,0.557,0.523,��쓌,1.5,��
2023/06/29,16:00,0.511,0.777,0.477,0.920,0.671,0.319,0.558,0.524,�k�k��,1.2,��
2023/06/29,16:10,0.511,0.778,0.479,0.918,0.671,0.319,0.557,0.524,���k��,1.4,��
2023/06/29,16:20,0.511,0.775,0.478,0.919,0.671,0.319,0.556,0.524,�k��,0.9,��
2023/06/29,16:30,0.512,0.777,0.478,0.919,0.670,0.318,0.556,0.523,�k��,1.2,��
2023/06/29,16:40,0.512,0.779,0.479,0.920,0.671,0.317,0.558,0.525,���쓌,0.9,��
2023/06/29,16:50,0.510,0.777,0.478,0.920,0.673,0.318,0.557,0.523,�쓌,0.6,��
2023/06/29,17:00,0.512,0.777,0.478,0.920,0.671,0.319,0.557,0.523,�쓌,1.1,��
2023/06/29,17:10,0.513,0.779,0.477,0.922,0.673,0.317,0.558,0.524,��쓌,0.9,��
2023/06/29,17:20,0.512,0.778,0.476,0.921,0.670,0.318,0.556,0.523,-,CALM,��
2023/06/29,17:30,0.511,0.777,0.479,0.921,0.671,0.319,0.557,0.523,-,CALM,��
2023/06/29,17:40,0.511,0.777,0.478,0.921,0.673,0.319,0.556,0.524,�k�k��,1.2,��
2023/06/29,17:50,0.513,0.779,0.479,0.921,0.671,0.319,0.557,0.524,�k�k��,1.4,��
2023/06/29,18:00,0.511,0.777,0.480,0.922,0.673,0.320,0.558,0.526,�k�k��,1.5,��
2023/06/29,18:10,0.511,0.777,0.479,0.922,0.673,0.321,0.556,0.527,-,CALM,��
2023/06/29,18:20,0.512,0.777,0.478,0.923,0.672,0.322,0.558,0.526,�k�k��,1.5,��
2023/06/29,18:30,0.512,0.777,0.478,0.921,0.674,0.319,0.558,0.528,�k�k��,1.2,��
2023/06/29,18:40,0.512,0.780,0.478,0.923,0.675,0.320,0.556,0.525,�k,1.4,��
2023/06/29,18:50,0.511,0.777,0.479,0.923,0.676,0.319,0.556,0.526,���k��,1.7,��
2023/06/29,19:00,0.512,0.778,0.479,0.925,0.675,0.319,0.557,0.526,���k��,2.6,��
2023/06/29,19:10,0.513,0.781,0.480,0.921,0.674,0.321,0.557,0.527,��,2.0,��
2023/06/29,19:20,0.512,0.780,0.480,0.924,0.675,0.319,0.558,0.527,���k��,2.0,��
2023/06/29,19:30,0.512,0.780,0.480,0.922,0.675,0.320,0.558,0.525,���k��,1.7,��
2023/06/29,19:40,0.512,0.781,0.479,0.924,0.677,0.320,0.559,0.527,��,2.0,��
2023/06/29,19:50,0.512,0.782,0.481,0.927,0.673,0.321,0.560,0.527,��,2.0,��
2023/06/29,20:00,0.513,0.780,0.482,0.926,0.673,0.320,0.557,0.527,��,2.0,��
2023/06/29,20:10,0.514,0.781,0.480,0.926,0.674,0.322,0.560,0.526,��,2.3,��
2023/06/29,20:20,0.512,0.779,0.481,0.924,0.675,0.320,0.559,0.526,���k��,2.6,��
2023/06/29,20:30,0.514,0.780,0.479,0.926,0.674,0.320,0.560,0.526,���k��,1.9,��
2023/06/29,20:40,0.513,0.780,0.482,0.925,0.678,0.321,0.558,0.526,���k��,1.9,��
2023/06/29,20:50,0.513,0.780,0.481,0.927,0.676,0.320,0.559,0.527,���k��,2.5,��
2023/06/29,21:00,0.513,0.783,0.481,0.927,0.676,0.319,0.557,0.526,���k��,1.5,��
2023/06/29,21:10,0.513,0.782,0.481,0.928,0.675,0.320,0.558,0.526,�k��,3.0,��
2023/06/29,21:20,0.514,0.781,0.480,0.929,0.676,0.321,0.558,0.526,�k��,3.3,��
2023/06/29,21:30,0.512,0.781,0.481,0.927,0.677,0.320,0.558,0.526,�k��,3.2,��
2023/06/29,21:40,0.513,0.782,0.482,0.927,0.676,0.320,0.559,0.526,�k��,2.9,��
2023/06/29,21:50,0.513,0.781,0.482,0.929,0.676,0.321,0.559,0.524,�k��,1.9,��
2023/06/29,22:00,0.512,0.781,0.481,0.929,0.675,0.319,0.559,0.526,�k��,2.0,��
2023/06/29,22:10,0.512,0.780,0.481,0.928,0.675,0.321,0.557,0.525,��,1.2,��
2023/06/29,22:20,0.515,0.781,0.482,0.928,0.676,0.320,0.558,0.525,���k��,1.9,��
2023/06/29,22:30,0.513,0.780,0.481,0.928,0.677,0.321,0.559,0.527,���k��,1.7,��
2023/06/29,22:40,0.513,0.780,0.480,0.928,0.676,0.319,0.559,0.526,���쐼,1.5,��
2023/06/29,22:50,0.512,0.781,0.480,0.930,0.676,0.320,0.558,0.528,�쐼,1.9,��
2023/06/29,23:00,0.513,0.780,0.480,0.927,0.676,0.320,0.560,0.527,���쐼,1.2,��
2023/06/29,23:10,0.514,0.780,0.479,0.927,0.678,0.321,0.560,0.527,��쐼,1.5,��
2023/06/29,23:20,0.513,0.781,0.480,0.928,0.676,0.319,0.559,0.527,��쐼,3.8,��
2023/06/29,23:30,0.512,0.783,0.482,0.928,0.678,0.321,0.559,0.528,�쐼,3.1,��
2023/06/29,23:40,0.511,0.781,0.481,0.929,0.676,0.320,0.559,0.527,��,2.5,��
2023/06/29,23:50,0.513,0.782,0.481,0.928,0.676,0.320,0.560,0.526,��,2.6,��
